This is the latest recevied weather packets stored in our database for station/object KC2WGU. If no packets are shown the sender has not sent any weather packets the latest 10 day(s).
| Time | Temp. | Humidity | Pressure | Rain* | Wind** | Luminosity | Snow |
|---|---|---|---|---|---|---|---|
| 1777378220 | 13.89° C | 51% | 1017.6 hPa | 0 mm | - | 0 W/m² | - |
| 1777377622 | 13.33° C | 52% | 1017.9 hPa | 0 mm | - | 0 W/m² | - |
| 1777377020 | 13.33° C | 56% | 1017.9 hPa | 0 mm | - | 0 W/m² | - |
| 1777376421 | 12.78° C | 55% | 1018 hPa | 0 mm | - | 0 W/m² | - |
| 1777375822 | 12.22° C | 57% | 1017.9 hPa | 0 mm | - | 0 W/m² | - |
| 1777375221 | 12.22° C | 58% | 1017.9 hPa | 0 mm | - | 0 W/m² | - |
| 1777374620 | 11.67° C | 59% | 1017.7 hPa | 0 mm | - | 0 W/m² | - |
| 1777374021 | 11.67° C | 61% | 1017.7 hPa | 0 mm | - | 0 W/m² | - |
| 1777373420 | 11.11° C | 63% | 1017.5 hPa | 0 mm | - | 0 W/m² | - |
| 1777372820 | 11.11° C | 62% | 1017.6 hPa | 0 mm | - | 0 W/m² | - |
| 1777372220 | 10.56° C | 62% | 1017.5 hPa | 0 mm | - | 0 W/m² | - |
| 1777371620 | 10.56° C | 64% | 1017.6 hPa | 0 mm | - | 0 W/m² | - |
| 1777371021 | 10.56° C | 65% | 1017.8 hPa | 0 mm | - | 0 W/m² | - |
| 1777370420 | 10° C | 65% | 1017.8 hPa | 0 mm | - | 0 W/m² | - |
| 1777369820 | 10° C | 64% | 1017.9 hPa | 0 mm | - | 0 W/m² | - |
| 1777369220 | 10.56° C | 63% | 1017.9 hPa | 0 mm | - | 0 W/m² | - |
| 1777368620 | 11.11° C | 62% | 1017.9 hPa | 0 mm | - | 0 W/m² | - |
| 1777368020 | 11.11° C | 63% | 1017.9 hPa | 0 mm | - | 0 W/m² | - |
| 1777367420 | 11.11° C | 62% | 1017.7 hPa | 0 mm | - | 0 W/m² | - |
| 1777366822 | 11.11° C | 61% | 1017.6 hPa | 0 mm | - | 0 W/m² | - |
| 1777366220 | 11.11° C | 61% | 1017.6 hPa | 0 mm | - | 0 W/m² | - |
| 1777365620 | 11.67° C | 60% | 1018.1 hPa | 0 mm | - | 0 W/m² | - |
| 1777365020 | 11.67° C | 59% | 1018.1 hPa | 0 mm | - | 0 W/m² | - |
| 1777364421 | 11.67° C | 59% | 1018.1 hPa | 0 mm | - | 0 W/m² | - |
| 1777363820 | 11.67° C | 59% | 1018.5 hPa | 0 mm | - | 0 W/m² | - |
* Rain latest hour (hover to see other rain measurements)
** Current wind speed in m/s (hover to see current wind gust speed)